Time,TemperatureF,DewpointF,PressureIn,WindDirection,WindDirectionDegrees,WindSpeedMPH,WindSpeedGustMPH,Humidity,HourlyPrecipIn,Conditions,Clouds,dailyrainin,SolarRadiationWatts/m^2,SoftwareType,DateUTC
2013-04-20 00:02:00,50.4,46.9,30.03,West,266,10.0,10.0,88,0.00,,,0.00,0.0,meteohub,2013-04-20 07:02:00,
2013-04-20 00:07:00,50.2,46.8,30.03,West,275,6.0,11.0,88,0.00,,,0.00,0.0,meteohub,2013-04-20 07:07:00,
2013-04-20 00:12:00,50.0,46.6,30.03,SSW,209,5.0,11.0,88,0.00,,,0.00,0.0,meteohub,2013-04-20 07:12:00,
2013-04-20 00:17:00,49.8,46.8,30.04,WSW,244,2.0,11.0,89,0.00,,,0.00,0.0,meteohub,2013-04-20 07:17:00,
2013-04-20 00:22:00,49.6,46.6,30.04,West,261,3.0,10.0,89,0.00,,,0.00,0.0,meteohub,2013-04-20 07:22:00,
2013-04-20 00:27:00,49.6,46.6,30.03,WSW,254,3.0,9.0,89,0.00,,,0.00,0.0,meteohub,2013-04-20 07:27:00,
2013-04-20 00:32:00,49.5,46.6,30.04,WNW,295,4.0,6.0,90,0.00,,,0.00,0.0,meteohub,2013-04-20 07:32:00,
2013-04-20 00:37:00,49.5,46.6,30.03,NW,317,3.0,7.0,90,0.00,,,0.00,0.0,meteohub,2013-04-20 07:37:00,
2013-04-20 00:42:00,49.5,46.6,30.04,West,262,0.0,7.0,90,0.00,,,0.00,0.0,meteohub,2013-04-20 07:42:00,
2013-04-20 00:47:00,49.5,46.6,30.04,WSW,239,6.0,7.0,90,0.00,,,0.00,0.0,meteohub,2013-04-20 07:47:00,
2013-04-20 00:52:00,49.5,46.6,30.04,WSW,241,1.0,7.0,90,0.00,,,0.00,0.0,meteohub,2013-04-20 07:52:00,
2013-04-20 00:57:00,49.5,46.6,30.04,WNW,288,6.0,10.0,90,0.00,,,0.00,0.0,meteohub,2013-04-20 07:57:00,
2013-04-20 01:02:00,49.3,46.4,30.04,SW,234,2.0,10.0,90,0.00,,,0.00,0.0,meteohub,2013-04-20 08:02:00,
2013-04-20 01:07:00,48.9,46.0,30.04,WNW,284,5.0,11.0,90,0.00,,,0.00,0.0,meteohub,2013-04-20 08:07:00,
2013-04-20 01:12:00,48.7,45.9,30.04,WNW,282,1.0,11.0,90,0.00,,,0.00,0.0,meteohub,2013-04-20 08:12:00,
2013-04-20 01:17:00,48.7,45.9,30.04,NW,320,1.0,11.0,90,0.00,,,0.00,0.0,meteohub,2013-04-20 08:17:00,
2013-04-20 01:22:00,48.7,45.9,30.04,WNW,300,1.0,9.0,90,0.00,,,0.00,0.0,meteohub,2013-04-20 08:22:00,
2013-04-20 01:27:00,48.7,46.2,30.04,WNW,285,3.0,5.0,91,0.00,,,0.00,0.0,meteohub,2013-04-20 08:27:00,
2013-04-20 01:32:00,48.6,46.0,30.04,West,264,2.0,6.0,91,0.00,,,0.00,0.0,meteohub,2013-04-20 08:32:00,
2013-04-20 01:37:00,48.6,46.0,30.04,SSW,208,3.0,9.0,91,0.00,,,0.00,0.0,meteohub,2013-04-20 08:37:00,
2013-04-20 01:42:00,48.6,46.0,30.04,NW,304,4.0,9.0,91,0.00,,,0.00,0.0,meteohub,2013-04-20 08:42:00,
2013-04-20 01:47:00,48.4,45.9,30.04,SW,225,4.0,9.0,91,0.00,,,0.00,0.0,meteohub,2013-04-20 08:47:00,
2013-04-20 01:52:00,48.4,46.2,30.04,West,264,2.0,9.0,92,0.00,,,0.00,0.0,meteohub,2013-04-20 08:52:00,
2013-04-20 01:57:00,48.2,46.0,30.04,NW,317,2.0,9.0,92,0.00,,,0.00,0.0,meteohub,2013-04-20 08:57:00,
2013-04-20 02:02:00,48.2,46.0,30.04,SW,236,0.0,9.0,92,0.00,,,0.00,0.0,meteohub,2013-04-20 09:02:00,
2013-04-20 02:07:00,48.2,46.0,30.04,West,260,3.0,10.0,92,0.00,,,0.00,0.0,meteohub,2013-04-20 09:07:00,
2013-04-20 02:12:00,48.0,45.9,30.04,WSW,240,2.0,10.0,92,0.00,,,0.00,0.0,meteohub,2013-04-20 09:12:00,
2013-04-20 02:17:00,48.0,46.0,30.04,West,274,3.0,10.0,93,0.00,,,0.00,0.0,meteohub,2013-04-20 09:17:00,
2013-04-20 02:22:00,48.0,46.0,30.04,NW,306,5.0,7.0,93,0.00,,,0.00,0.0,meteohub,2013-04-20 09:22:00,
2013-04-20 02:27:00,48.0,46.0,30.04,WNW,288,6.0,9.0,93,0.00,,,0.00,0.0,meteohub,2013-04-20 09:27:00,
2013-04-20 02:32:00,48.0,46.0,30.04,West,275,4.0,9.0,93,0.00,,,0.00,0.0,meteohub,2013-04-20 09:32:00,
2013-04-20 02:37:00,48.0,46.0,30.04,West,279,2.0,9.0,93,0.00,,,0.00,0.0,meteohub,2013-04-20 09:37:00,
2013-04-20 02:42:00,48.0,46.0,30.04,West,263,2.0,9.0,93,0.00,,,0.00,0.0,meteohub,2013-04-20 09:42:00,
2013-04-20 02:47:00,48.0,46.0,30.04,West,261,2.0,7.0,93,0.00,,,0.00,0.0,meteohub,2013-04-20 09:47:00,
2013-04-20 02:52:00,48.0,46.0,30.04,West,277,2.0,7.0,93,0.00,,,0.00,0.0,meteohub,2013-04-20 09:52:00,
2013-04-20 02:57:00,48.0,46.0,30.04,West,276,1.0,7.0,93,0.00,,,0.00,0.0,meteohub,2013-04-20 09:57:00,
2013-04-20 03:02:00,48.0,46.0,30.04,WNW,282,1.0,8.0,93,0.00,,,0.00,0.0,meteohub,2013-04-20 10:02:00,
2013-04-20 03:07:00,47.8,45.9,30.04,West,281,4.0,9.0,93,0.00,,,0.00,0.0,meteohub,2013-04-20 10:07:00,
2013-04-20 03:12:00,48.0,46.0,30.04,WNW,302,3.0,9.0,93,0.00,,,0.00,0.0,meteohub,2013-04-20 10:12:00,
2013-04-20 03:16:00,48.0,46.0,30.04,West,279,4.0,9.0,93,0.00,,,0.00,0.0,meteohub,2013-04-20 10:16:00,
2013-04-20 03:22:00,48.0,46.0,30.04,WNW,293,7.0,7.0,93,0.00,,,0.00,0.0,meteohub,2013-04-20 10:22:00,
2013-04-20 03:27:00,48.0,46.0,30.04,West,269,1.0,10.0,93,0.00,,,0.00,0.0,meteohub,2013-04-20 10:27:00,
2013-04-20 03:32:00,48.0,46.0,30.04,West,273,3.0,10.0,93,0.00,,,0.00,0.0,meteohub,2013-04-20 10:32:00,
2013-04-20 03:36:00,48.0,46.0,30.04,WSW,252,3.0,7.0,93,0.00,,,0.00,0.0,meteohub,2013-04-20 10:36:00,
2013-04-20 03:42:00,48.0,46.0,30.04,West,263,3.0,6.0,93,0.00,,,0.00,0.0,meteohub,2013-04-20 10:42:00,
2013-04-20 03:47:00,48.0,46.0,30.04,West,271,1.0,6.0,93,0.00,,,0.00,0.0,meteohub,2013-04-20 10:47:00,
2013-04-20 03:52:00,47.8,45.9,30.05,West,260,1.0,6.0,93,0.00,,,0.00,0.0,meteohub,2013-04-20 10:52:00,
2013-04-20 03:57:00,47.8,45.9,30.05,West,267,0.0,6.0,93,0.00,,,0.00,0.0,meteohub,2013-04-20 10:57:00,
2013-04-20 04:02:00,47.8,45.9,30.04,WSW,257,1.0,5.0,93,0.00,,,0.00,0.0,meteohub,2013-04-20 11:02:00,
2013-04-20 04:07:00,47.8,45.9,30.05,West,277,3.0,5.0,93,0.00,,,0.00,0.0,meteohub,2013-04-20 11:07:00,
2013-04-20 04:12:00,47.8,45.9,30.05,West,276,3.0,6.0,93,0.00,,,0.00,0.0,meteohub,2013-04-20 11:12:00,
2013-04-20 04:17:00,47.8,45.9,30.05,WNW,288,5.0,6.0,93,0.00,,,0.00,0.0,meteohub,2013-04-20 11:17:00,
2013-04-20 04:22:00,47.8,45.9,30.04,West,262,4.0,6.0,93,0.00,,,0.00,0.0,meteohub,2013-04-20 11:22:00,
2013-04-20 04:27:00,47.8,45.9,30.05,WNW,284,4.0,7.0,93,0.00,,,0.00,0.0,meteohub,2013-04-20 11:27:00,
2013-04-20 04:32:00,48.0,46.0,30.04,West,274,5.0,7.0,93,0.00,,,0.00,0.0,meteohub,2013-04-20 11:32:00,
2013-04-20 04:37:00,48.0,46.0,30.04,WNW,287,6.0,7.0,93,0.00,,,0.00,0.0,meteohub,2013-04-20 11:37:00,
2013-04-20 04:42:00,48.0,46.0,30.04,WNW,284,9.0,9.0,93,0.00,,,0.00,0.0,meteohub,2013-04-20 11:42:00,
2013-04-20 04:47:00,48.0,46.0,30.04,West,275,3.0,10.0,93,0.00,,,0.00,0.0,meteohub,2013-04-20 11:47:00,
2013-04-20 04:52:00,48.2,46.2,30.04,WNW,284,6.0,10.0,93,0.00,,,0.00,0.0,meteohub,2013-04-20 11:52:00,
2013-04-20 04:57:00,48.2,46.2,30.04,WNW,293,4.0,10.0,93,0.00,,,0.00,0.0,meteohub,2013-04-20 11:57:00,
2013-04-20 05:02:00,48.2,46.2,30.04,West,274,6.0,11.0,93,0.00,,,0.00,0.0,meteohub,2013-04-20 12:02:00,
2013-04-20 05:07:00,48.2,46.2,30.05,West,265,10.0,11.0,93,0.00,,,0.00,0.0,meteohub,2013-04-20 12:07:00,
2013-04-20 05:12:00,48.2,46.2,30.04,WNW,287,9.0,11.0,93,0.00,,,0.00,0.0,meteohub,2013-04-20 12:12:00,
2013-04-20 05:17:00,48.2,46.2,30.05,NW,304,9.0,11.0,93,0.00,,,0.00,0.0,meteohub,2013-04-20 12:17:00,
2013-04-20 05:22:00,48.2,46.2,30.04,WNW,289,6.0,12.0,93,0.00,,,0.00,0.0,meteohub,2013-04-20 12:22:00,
2013-04-20 05:27:00,48.2,46.2,30.05,WNW,292,6.0,12.0,93,0.00,,,0.00,0.0,meteohub,2013-04-20 12:27:00,
2013-04-20 05:32:00,48.2,46.0,30.04,West,273,6.0,12.0,92,0.00,,,0.00,0.0,meteohub,2013-04-20 12:32:00,
2013-04-20 05:36:00,48.2,46.2,30.04,WNW,282,9.0,10.0,93,0.00,,,0.00,0.0,meteohub,2013-04-20 12:36:00,
2013-04-20 05:41:00,48.2,46.2,30.04,West,278,5.0,11.0,93,0.00,,,0.00,0.0,meteohub,2013-04-20 12:41:00,
2013-04-20 05:47:00,48.0,46.0,30.04,West,265,5.0,11.0,93,0.00,,,0.00,0.0,meteohub,2013-04-20 12:47:00,
2013-04-20 05:52:00,48.0,46.0,30.04,WNW,285,4.0,11.0,93,0.00,,,0.00,0.0,meteohub,2013-04-20 12:52:00,
2013-04-20 05:57:00,48.0,46.0,30.04,West,280,5.0,11.0,93,0.00,,,0.00,0.0,meteohub,2013-04-20 12:57:00,
2013-04-20 06:02:00,48.0,46.0,30.05,WSW,244,1.0,9.0,93,0.00,,,0.00,0.0,meteohub,2013-04-20 13:02:00,
2013-04-20 06:07:00,48.0,46.0,30.04,WSW,238,0.0,9.0,93,0.00,,,0.00,0.0,meteohub,2013-04-20 13:07:00,
2013-04-20 06:12:00,47.8,45.9,30.04,WSW,254,0.0,9.0,93,0.00,,,0.00,0.0,meteohub,2013-04-20 13:12:00,
2013-04-20 06:17:00,47.8,45.9,30.04,SW,236,1.0,4.0,93,0.00,,,0.00,0.0,meteohub,2013-04-20 13:17:00,
2013-04-20 06:21:00,47.8,45.9,30.05,SW,225,2.0,5.0,93,0.00,,,0.00,0.0,meteohub,2013-04-20 13:21:00,
2013-04-20 06:27:00,47.7,45.7,30.04,West,261,0.0,5.0,93,0.00,,,0.00,5.0,meteohub,2013-04-20 13:27:00,
2013-04-20 06:32:00,47.7,45.7,30.04,West,261,3.0,4.0,93,0.00,,,0.00,7.0,meteohub,2013-04-20 13:32:00,
2013-04-20 06:37:00,47.7,45.7,30.04,West,280,3.0,4.0,93,0.00,,,0.00,11.0,meteohub,2013-04-20 13:37:00,
2013-04-20 06:41:00,47.8,46.2,30.04,WNW,292,4.0,7.0,94,0.00,,,0.00,16.0,meteohub,2013-04-20 13:41:00,
2013-04-20 06:47:00,47.8,46.2,30.04,WNW,292,0.0,8.0,94,0.00,,,0.00,21.0,meteohub,2013-04-20 13:47:00,
2013-04-20 06:52:00,47.8,46.2,30.04,WNW,291,1.0,8.0,94,0.00,,,0.00,30.0,meteohub,2013-04-20 13:52:00,
2013-04-20 06:57:00,48.0,46.0,30.04,WNW,296,4.0,8.0,93,0.00,,,0.00,40.0,meteohub,2013-04-20 13:57:00,
2013-04-20 07:02:00,48.0,46.0,30.04,West,281,5.0,5.0,93,0.00,,,0.00,53.0,meteohub,2013-04-20 14:02:00,
2013-04-20 07:07:00,48.2,46.2,30.04,WNW,286,4.0,6.0,93,0.00,,,0.00,69.0,meteohub,2013-04-20 14:07:00,
2013-04-20 07:12:00,48.4,46.4,30.04,WNW,292,1.0,6.0,93,0.00,,,0.00,84.0,meteohub,2013-04-20 14:12:00,
2013-04-20 07:17:00,48.7,46.8,30.04,WNW,288,2.0,6.0,93,0.00,,,0.00,102.0,meteohub,2013-04-20 14:17:00,
2013-04-20 07:22:00,48.9,46.8,30.04,West,273,1.0,5.0,92,0.00,,,0.00,120.0,meteohub,2013-04-20 14:22:00,
2013-04-20 07:26:00,49.3,47.1,30.04,West,277,4.0,5.0,92,0.00,,,0.00,135.0,meteohub,2013-04-20 14:26:00,
2013-04-20 07:31:00,49.5,47.3,30.04,West,271,4.0,6.0,92,0.00,,,0.00,155.0,meteohub,2013-04-20 14:31:00,
2013-04-20 07:36:00,49.8,47.3,30.04,WNW,286,4.0,6.0,91,0.00,,,0.00,174.0,meteohub,2013-04-20 14:36:00,
2013-04-20 07:41:00,50.2,47.3,30.04,WNW,291,2.0,6.0,90,0.00,,,0.00,193.0,meteohub,2013-04-20 14:41:00,
2013-04-20 07:46:00,50.4,47.5,30.04,West,276,4.0,5.0,90,0.00,,,0.00,211.0,meteohub,2013-04-20 14:46:00,
2013-04-20 07:51:00,50.5,47.5,30.05,West,275,1.0,5.0,89,0.00,,,0.00,227.0,meteohub,2013-04-20 14:51:00,
2013-04-20 07:56:00,51.3,48.2,30.04,West,275,2.0,4.0,89,0.00,,,0.00,246.0,meteohub,2013-04-20 14:56:00,
2013-04-20 08:01:00,52.0,48.2,30.04,West,263,0.0,4.0,87,0.00,,,0.00,258.0,meteohub,2013-04-20 15:01:00,
2013-04-20 08:06:00,51.8,48.0,30.04,WSW,244,2.0,4.0,87,0.00,,,0.00,278.0,meteohub,2013-04-20 15:06:00,
2013-04-20 08:11:00,52.3,48.6,30.04,West,265,1.0,4.0,87,0.00,,,0.00,295.0,meteohub,2013-04-20 15:11:00,
2013-04-20 08:16:00,52.5,48.4,30.04,West,265,0.0,4.0,86,0.00,,,0.00,315.0,meteohub,2013-04-20 15:16:00,
2013-04-20 08:22:00,52.9,48.6,30.04,SSW,205,1.0,5.0,85,0.00,,,0.00,332.0,meteohub,2013-04-20 15:22:00,
2013-04-20 08:26:00,53.1,48.9,30.04,West,267,1.0,5.0,86,0.00,,,0.00,348.0,meteohub,2013-04-20 15:26:00,
2013-04-20 08:32:00,53.6,48.9,30.04,West,275,3.0,5.0,84,0.00,,,0.00,367.0,meteohub,2013-04-20 15:32:00,
2013-04-20 08:37:00,54.1,49.5,30.04,SW,228,1.0,5.0,84,0.00,,,0.00,387.0,meteohub,2013-04-20 15:37:00,
2013-04-20 08:42:00,54.9,49.8,30.04,WSW,240,0.0,5.0,83,0.00,,,0.00,401.0,meteohub,2013-04-20 15:42:00,
2013-04-20 08:47:00,55.0,49.6,30.04,SW,224,2.0,5.0,82,0.00,,,0.00,418.0,meteohub,2013-04-20 15:47:00,
2013-04-20 08:52:00,55.6,50.2,30.04,SW,236,2.0,6.0,82,0.00,,,0.00,432.0,meteohub,2013-04-20 15:52:00,
2013-04-20 08:57:00,55.9,50.2,30.04,South,186,2.0,6.0,81,0.00,,,0.00,450.0,meteohub,2013-04-20 15:57:00,
2013-04-20 09:02:00,56.1,49.6,30.04,WSW,242,1.0,6.0,79,0.00,,,0.00,468.0,meteohub,2013-04-20 16:02:00,
2013-04-20 09:07:00,56.5,49.6,30.04,SW,217,1.0,5.0,78,0.00,,,0.00,485.0,meteohub,2013-04-20 16:07:00,
2013-04-20 09:12:00,57.0,49.8,30.03,WSW,252,3.0,5.0,77,0.00,,,0.00,499.0,meteohub,2013-04-20 16:12:00,
2013-04-20 09:17:00,57.4,49.5,30.03,SW,228,1.0,5.0,75,0.00,,,0.00,519.0,meteohub,2013-04-20 16:17:00,
2013-04-20 09:22:00,58.3,49.6,30.03,SSW,211,2.0,5.0,73,0.00,,,0.00,534.0,meteohub,2013-04-20 16:22:00,
2013-04-20 09:27:00,58.5,49.5,30.02,SW,230,2.0,4.0,72,0.00,,,0.00,550.0,meteohub,2013-04-20 16:27:00,
2013-04-20 09:32:00,58.6,49.6,30.03,West,266,2.0,6.0,72,0.00,,,0.00,566.0,meteohub,2013-04-20 16:32:00,
2013-04-20 09:37:00,59.5,50.5,30.02,SW,219,2.0,6.0,72,0.00,,,0.00,584.0,meteohub,2013-04-20 16:37:00,
2013-04-20 09:42:00,59.9,50.2,30.02,SSW,196,1.0,5.0,70,0.00,,,0.00,596.0,meteohub,2013-04-20 16:42:00,
2013-04-20 09:47:00,60.3,49.6,30.02,SSW,192,3.0,4.0,68,0.00,,,0.00,610.0,meteohub,2013-04-20 16:47:00,
2013-04-20 09:52:00,60.1,50.2,30.02,SW,228,2.0,4.0,70,0.00,,,0.00,626.0,meteohub,2013-04-20 16:52:00,
2013-04-20 09:57:00,60.4,50.5,30.02,WSW,246,3.0,6.0,70,0.00,,,0.00,636.0,meteohub,2013-04-20 16:57:00,
2013-04-20 10:01:00,61.3,51.1,30.02,SSW,207,5.0,7.0,69,0.00,,,0.00,652.0,meteohub,2013-04-20 17:01:00,
2013-04-20 10:07:00,62.6,51.1,30.02,SSE,167,3.0,7.0,66,0.00,,,0.00,671.0,meteohub,2013-04-20 17:07:00,
2013-04-20 10:12:00,62.4,50.0,30.02,WSW,255,1.0,7.0,64,0.00,,,0.00,687.0,meteohub,2013-04-20 17:12:00,
2013-04-20 10:17:00,63.0,50.2,30.02,SW,227,3.0,7.0,63,0.00,,,0.00,700.0,meteohub,2013-04-20 17:17:00,
2013-04-20 10:22:00,63.3,50.0,30.02,SW,226,3.0,5.0,62,0.00,,,0.00,712.0,meteohub,2013-04-20 17:22:00,
2013-04-20 10:27:00,65.1,43.9,30.02,NNE,13,2.0,5.0,46,0.00,,,0.00,726.0,meteohub,2013-04-20 17:27:00,
2013-04-20 10:32:00,66.9,41.2,30.02,NNE,26,5.0,5.0,39,0.00,,,0.00,740.0,meteohub,2013-04-20 17:32:00,
2013-04-20 10:37:00,67.8,42.6,30.02,NW,309,3.0,10.0,40,0.00,,,0.00,752.0,meteohub,2013-04-20 17:37:00,
2013-04-20 10:42:00,66.7,48.6,30.02,East,92,0.0,10.0,52,0.00,,,0.00,766.0,meteohub,2013-04-20 17:42:00,
2013-04-20 10:47:00,67.8,41.4,30.02,ENE,62,0.0,10.0,38,0.00,,,0.00,779.0,meteohub,2013-04-20 17:47:00,
2013-04-20 10:52:00,69.4,43.3,30.02,NNE,33,9.0,9.0,39,0.00,,,0.00,793.0,meteohub,2013-04-20 17:52:00,
2013-04-20 10:57:00,69.4,40.6,30.02,NNE,32,7.0,9.0,35,0.00,,,0.00,802.0,meteohub,2013-04-20 17:57:00,
2013-04-20 11:02:00,69.6,40.8,30.02,NE,47,1.0,9.0,35,0.00,,,0.00,809.0,meteohub,2013-04-20 18:02:00,
2013-04-20 11:07:00,69.6,46.2,30.02,WSW,258,5.0,9.0,43,0.00,,,0.00,821.0,meteohub,2013-04-20 18:07:00,
2013-04-20 11:12:00,69.3,45.9,30.02,WSW,238,2.0,9.0,43,0.00,,,0.00,833.0,meteohub,2013-04-20 18:12:00,
2013-04-20 11:17:00,70.2,41.2,30.01,ENE,67,1.0,7.0,35,0.00,,,0.00,840.0,meteohub,2013-04-20 18:17:00,
2013-04-20 11:21:00,71.2,46.4,30.01,South,180,4.0,7.0,41,0.00,,,0.00,847.0,meteohub,2013-04-20 18:21:00,
2013-04-20 11:26:00,69.1,45.7,30.01,WNW,303,2.0,7.0,43,0.00,,,0.00,858.0,meteohub,2013-04-20 18:26:00,
2013-04-20 11:32:00,68.9,47.3,30.01,SSE,157,1.0,7.0,46,0.00,,,0.00,865.0,meteohub,2013-04-20 18:32:00,
2013-04-20 11:37:00,69.3,46.9,30.01,West,280,4.0,7.0,45,0.00,,,0.00,875.0,meteohub,2013-04-20 18:37:00,
2013-04-20 11:42:00,69.3,49.8,30.01,SW,230,5.0,10.0,50,0.00,,,0.00,877.0,meteohub,2013-04-20 18:42:00,
2013-04-20 11:47:00,66.6,48.9,30.01,West,261,4.0,10.0,53,0.00,,,0.00,886.0,meteohub,2013-04-20 18:47:00,
2013-04-20 11:52:00,66.6,49.8,30.01,WNW,292,2.0,11.0,55,0.00,,,0.00,888.0,meteohub,2013-04-20 18:52:00,
2013-04-20 11:57:00,66.4,49.3,30.01,WNW,288,5.0,11.0,54,0.00,,,0.00,896.0,meteohub,2013-04-20 18:57:00,
2013-04-20 12:02:00,66.0,49.5,30.01,SW,231,5.0,10.0,55,0.00,,,0.00,898.0,meteohub,2013-04-20 19:02:00,
2013-04-20 12:07:00,66.0,48.9,30.01,West,275,7.0,10.0,54,0.00,,,0.00,902.0,meteohub,2013-04-20 19:07:00,
2013-04-20 12:12:00,65.8,49.3,30.01,SW,223,4.0,12.0,55,0.00,,,0.00,911.0,meteohub,2013-04-20 19:12:00,
2013-04-20 12:17:00,65.7,49.5,30.01,SSW,209,3.0,12.0,56,0.00,,,0.00,914.0,meteohub,2013-04-20 19:17:00,
2013-04-20 12:22:00,65.7,49.1,30.01,SSW,198,6.0,12.0,55,0.00,,,0.00,923.0,meteohub,2013-04-20 19:22:00,
2013-04-20 12:27:00,65.7,49.1,30.01,SSW,213,5.0,13.0,55,0.00,,,0.00,923.0,meteohub,2013-04-20 19:27:00,
2013-04-20 12:32:00,65.5,49.3,30.01,West,270,2.0,14.0,56,0.00,,,0.00,926.0,meteohub,2013-04-20 19:32:00,
2013-04-20 12:36:00,64.9,48.4,30.01,SSW,212,14.0,14.0,55,0.00,,,0.00,928.0,meteohub,2013-04-20 19:36:00,
2013-04-20 12:41:00,63.1,48.2,30.01,SW,226,6.0,17.0,58,0.00,,,0.00,930.0,meteohub,2013-04-20 19:41:00,
2013-04-20 12:46:00,63.3,48.7,30.01,SSW,211,9.0,17.0,59,0.00,,,0.00,933.0,meteohub,2013-04-20 19:46:00,
2013-04-20 12:51:00,63.7,48.2,30.01,WSW,256,6.0,17.0,57,0.00,,,0.00,932.0,meteohub,2013-04-20 19:51:00,
2013-04-20 12:56:00,62.4,47.8,30.01,WSW,246,5.0,14.0,59,0.00,,,0.00,935.0,meteohub,2013-04-20 19:56:00,
2013-04-20 13:02:00,62.4,48.4,30.01,West,274,3.0,17.0,60,0.00,,,0.00,935.0,meteohub,2013-04-20 20:02:00,
2013-04-20 13:07:00,61.9,48.7,30.00,WSW,248,7.0,17.0,62,0.00,,,0.00,935.0,meteohub,2013-04-20 20:07:00,
2013-04-20 13:12:00,62.1,49.3,30.00,SW,231,14.0,17.0,63,0.00,,,0.00,937.0,meteohub,2013-04-20 20:12:00,
2013-04-20 13:17:00,62.2,49.1,30.00,SW,226,4.0,16.0,62,0.00,,,0.00,937.0,meteohub,2013-04-20 20:17:00,
2013-04-20 13:22:00,62.4,49.3,30.00,WSW,254,9.0,16.0,62,0.00,,,0.00,937.0,meteohub,2013-04-20 20:22:00,
2013-04-20 13:26:00,61.9,49.1,30.00,West,272,10.0,14.0,63,0.00,,,0.00,933.0,meteohub,2013-04-20 20:26:00,
2013-04-20 13:31:00,61.5,49.3,30.00,West,273,8.0,13.0,64,0.00,,,0.00,933.0,meteohub,2013-04-20 20:31:00,
2013-04-20 13:37:00,61.7,49.5,30.00,SW,228,12.0,15.0,64,0.00,,,0.00,930.0,meteohub,2013-04-20 20:37:00,
2013-04-20 13:41:00,61.7,49.8,30.00,WSW,257,4.0,15.0,65,0.00,,,0.00,926.0,meteohub,2013-04-20 20:41:00,
2013-04-20 13:46:00,61.7,49.5,30.00,SW,223,9.0,15.0,64,0.00,,,0.00,923.0,meteohub,2013-04-20 20:46:00,
2013-04-20 13:51:00,61.3,49.5,29.99,West,269,9.0,16.0,65,0.00,,,0.00,921.0,meteohub,2013-04-20 20:51:00,
2013-04-20 13:56:00,61.5,49.6,29.99,WSW,256,5.0,16.0,65,0.00,,,0.00,914.0,meteohub,2013-04-20 20:56:00,
2013-04-20 14:02:00,61.5,49.6,29.99,NW,304,7.0,19.0,65,0.00,,,0.00,907.0,meteohub,2013-04-20 21:02:00,
2013-04-20 14:06:00,62.1,49.8,29.99,West,280,12.0,19.0,64,0.00,,,0.00,902.0,meteohub,2013-04-20 21:06:00,
2013-04-20 14:11:00,62.1,49.3,29.99,WSW,247,6.0,19.0,63,0.00,,,0.00,900.0,meteohub,2013-04-20 21:11:00,
2013-04-20 14:16:00,61.3,49.5,29.99,SW,227,10.0,17.0,65,0.00,,,0.00,896.0,meteohub,2013-04-20 21:16:00,
2013-04-20 14:22:00,61.3,49.1,29.99,West,267,10.0,17.0,64,0.00,,,0.00,891.0,meteohub,2013-04-20 21:22:00,
2013-04-20 14:27:00,61.0,49.1,29.99,SW,225,4.0,17.0,65,0.00,,,0.00,881.0,meteohub,2013-04-20 21:27:00,
2013-04-20 14:32:00,60.8,48.9,29.99,West,277,6.0,19.0,65,0.00,,,0.00,877.0,meteohub,2013-04-20 21:32:00,
2013-04-20 14:37:00,61.2,49.3,29.99,WSW,245,7.0,19.0,65,0.00,,,0.00,868.0,meteohub,2013-04-20 21:37:00,
2013-04-20 14:42:00,61.9,49.1,29.99,SW,223,4.0,19.0,63,0.00,,,0.00,860.0,meteohub,2013-04-20 21:42:00,
2013-04-20 14:47:00,61.9,48.7,29.99,SW,234,10.0,18.0,62,0.00,,,0.00,853.0,meteohub,2013-04-20 21:47:00,
2013-04-20 14:52:00,61.5,48.4,29.99,SSE,166,4.0,16.0,62,0.00,,,0.00,844.0,meteohub,2013-04-20 21:52:00,
2013-04-20 14:57:00,61.3,48.6,29.99,WNW,294,5.0,16.0,63,0.00,,,0.00,835.0,meteohub,2013-04-20 21:57:00,
2013-04-20 15:02:00,61.2,48.9,29.98,WNW,297,4.0,18.0,64,0.00,,,0.00,828.0,meteohub,2013-04-20 22:02:00,
2013-04-20 15:07:00,62.2,49.5,29.98,SW,219,6.0,18.0,63,0.00,,,0.00,814.0,meteohub,2013-04-20 22:07:00,
2013-04-20 15:12:00,62.2,48.6,29.98,West,271,7.0,18.0,61,0.00,,,0.00,809.0,meteohub,2013-04-20 22:12:00,
2013-04-20 15:17:00,62.1,48.9,29.97,WNW,284,3.0,15.0,62,0.00,,,0.00,798.0,meteohub,2013-04-20 22:17:00,
2013-04-20 15:22:00,62.2,48.2,29.98,SW,215,11.0,15.0,60,0.00,,,0.00,788.0,meteohub,2013-04-20 22:22:00,
2013-04-20 15:27:00,62.1,48.9,29.98,SSW,200,10.0,15.0,62,0.00,,,0.00,780.0,meteohub,2013-04-20 22:27:00,
2013-04-20 15:32:00,62.1,48.9,29.97,WSW,254,6.0,15.0,62,0.00,,,0.00,768.0,meteohub,2013-04-20 22:32:00,
2013-04-20 15:37:00,61.5,48.4,29.97,WNW,296,11.0,16.0,62,0.00,,,0.00,754.0,meteohub,2013-04-20 22:37:00,
2013-04-20 15:41:00,62.1,49.3,29.97,NW,322,4.0,16.0,63,0.00,,,0.00,742.0,meteohub,2013-04-20 22:41:00,
2013-04-20 15:46:00,61.7,48.9,29.97,SW,234,8.0,16.0,63,0.00,,,0.00,731.0,meteohub,2013-04-20 22:46:00,
2013-04-20 15:51:00,61.3,48.6,29.97,WSW,255,5.0,16.0,63,0.00,,,0.00,717.0,meteohub,2013-04-20 22:51:00,
2013-04-20 15:56:00,61.2,48.9,29.97,West,263,7.0,16.0,64,0.00,,,0.00,705.0,meteohub,2013-04-20 22:56:00,
2013-04-20 16:01:00,61.2,48.9,29.97,WSW,253,7.0,20.0,64,0.00,,,0.00,693.0,meteohub,2013-04-20 23:01:00,
2013-04-20 16:06:00,61.3,48.6,29.96,SW,227,5.0,20.0,63,0.00,,,0.00,682.0,meteohub,2013-04-20 23:06:00,
2013-04-20 16:11:00,61.9,48.7,29.96,NW,321,7.0,20.0,62,0.00,,,0.00,668.0,meteohub,2013-04-20 23:11:00,
2013-04-20 16:17:00,61.7,48.6,29.96,SW,234,6.0,15.0,62,0.00,,,0.00,654.0,meteohub,2013-04-20 23:17:00,
2013-04-20 16:22:00,61.3,49.1,29.96,WSW,246,6.0,15.0,64,0.00,,,0.00,638.0,meteohub,2013-04-20 23:22:00,
2013-04-20 16:27:00,60.4,48.2,29.96,WSW,242,11.0,15.0,64,0.00,,,0.00,622.0,meteohub,2013-04-20 23:27:00,
2013-04-20 16:32:00,60.4,48.6,29.96,West,279,4.0,15.0,65,0.00,,,0.00,608.0,meteohub,2013-04-20 23:32:00,
2013-04-20 16:37:00,60.4,48.6,29.96,SW,229,4.0,16.0,65,0.00,,,0.00,591.0,meteohub,2013-04-20 23:37:00,
2013-04-20 16:42:00,61.0,49.1,29.96,West,262,9.0,19.0,65,0.00,,,0.00,577.0,meteohub,2013-04-20 23:42:00,
2013-04-20 16:46:00,61.0,48.7,29.95,West,279,5.0,20.0,64,0.00,,,0.00,561.0,meteohub,2013-04-20 23:46:00,
2013-04-20 16:52:00,60.4,49.1,29.95,WSW,249,3.0,20.0,66,0.00,,,0.00,547.0,meteohub,2013-04-20 23:52:00,
2013-04-20 16:57:00,59.7,48.7,29.96,SW,219,4.0,20.0,67,0.00,,,0.00,529.0,meteohub,2013-04-20 23:57:00,
2013-04-20 17:02:00,58.8,48.7,29.96,WSW,251,6.0,17.0,69,0.00,,,0.00,510.0,meteohub,2013-04-21 00:02:00,
2013-04-20 17:07:00,58.3,48.6,29.96,WNW,286,6.0,17.0,70,0.00,,,0.00,496.0,meteohub,2013-04-21 00:07:00,
2013-04-20 17:12:00,58.3,48.6,29.96,WSW,244,6.0,17.0,70,0.00,,,0.00,482.0,meteohub,2013-04-21 00:12:00,
2013-04-20 17:17:00,57.7,48.4,29.95,WNW,291,6.0,17.0,71,0.00,,,0.00,468.0,meteohub,2013-04-21 00:17:00,
2013-04-20 17:22:00,57.2,48.2,29.95,WSW,238,3.0,17.0,72,0.00,,,0.00,448.0,meteohub,2013-04-21 00:22:00,
2013-04-20 17:27:00,56.8,48.2,29.96,WSW,256,2.0,13.0,73,0.00,,,0.00,432.0,meteohub,2013-04-21 00:27:00,
2013-04-20 17:32:00,56.7,48.4,29.95,SW,223,7.0,13.0,74,0.00,,,0.00,417.0,meteohub,2013-04-21 00:32:00,
2013-04-20 17:37:00,56.5,48.4,29.95,SSW,200,5.0,13.0,74,0.00,,,0.00,397.0,meteohub,2013-04-21 00:37:00,
2013-04-20 17:42:00,55.9,47.8,29.95,West,277,3.0,14.0,74,0.00,,,0.00,380.0,meteohub,2013-04-21 00:42:00,
2013-04-20 17:47:00,56.1,48.0,29.95,West,279,4.0,14.0,74,0.00,,,0.00,366.0,meteohub,2013-04-21 00:47:00,
2013-04-20 17:52:00,55.9,48.2,29.95,West,273,10.0,14.0,75,0.00,,,0.00,345.0,meteohub,2013-04-21 00:52:00,
2013-04-20 17:57:00,55.8,48.0,29.95,WSW,246,9.0,14.0,75,0.00,,,0.00,329.0,meteohub,2013-04-21 00:57:00,
2013-04-20 18:01:00,55.8,48.0,29.95,SW,226,7.0,13.0,75,0.00,,,0.00,311.0,meteohub,2013-04-21 01:01:00,
2013-04-20 18:06:00,55.8,48.0,29.94,WNW,289,5.0,13.0,75,0.00,,,0.00,294.0,meteohub,2013-04-21 01:06:00,
2013-04-20 18:12:00,55.2,48.2,29.95,SW,225,8.0,15.0,77,0.00,,,0.00,272.0,meteohub,2013-04-21 01:12:00,
2013-04-20 18:17:00,54.9,47.8,29.95,West,259,7.0,15.0,77,0.00,,,0.00,250.0,meteohub,2013-04-21 01:17:00,
2013-04-20 18:22:00,54.3,47.7,29.94,WSW,245,2.0,19.0,78,0.00,,,0.00,234.0,meteohub,2013-04-21 01:22:00,
2013-04-20 18:27:00,54.1,47.5,29.95,SW,232,11.0,19.0,78,0.00,,,0.00,211.0,meteohub,2013-04-21 01:27:00,
2013-04-20 18:32:00,53.8,47.5,29.94,WSW,248,4.0,19.0,79,0.00,,,0.00,192.0,meteohub,2013-04-21 01:32:00,
2013-04-20 18:37:00,53.4,47.1,29.94,West,259,3.0,17.0,79,0.00,,,0.00,169.0,meteohub,2013-04-21 01:37:00,
2013-04-20 18:41:00,53.4,47.5,29.94,West,277,6.0,17.0,80,0.00,,,0.00,146.0,meteohub,2013-04-21 01:41:00,
2013-04-20 18:46:00,53.2,47.3,29.95,NNW,327,8.0,17.0,80,0.00,,,0.00,127.0,meteohub,2013-04-21 01:46:00,
2013-04-20 18:51:00,52.9,47.3,29.95,West,277,6.0,16.0,81,0.00,,,0.00,111.0,meteohub,2013-04-21 01:51:00,
2013-04-20 18:56:00,52.9,47.3,29.94,West,265,6.0,15.0,81,0.00,,,0.00,93.0,meteohub,2013-04-21 01:56:00,
2013-04-20 19:02:00,52.3,46.8,29.94,WSW,257,3.0,17.0,81,0.00,,,0.00,77.0,meteohub,2013-04-21 02:02:00,
2013-04-20 19:07:00,52.2,46.8,29.94,SW,228,11.0,17.0,82,0.00,,,0.00,62.0,meteohub,2013-04-21 02:07:00,
2013-04-20 19:12:00,52.0,46.6,29.94,WNW,294,6.0,17.0,82,0.00,,,0.00,47.0,meteohub,2013-04-21 02:12:00,
2013-04-20 19:17:00,51.6,46.2,29.94,West,264,6.0,17.0,82,0.00,,,0.00,35.0,meteohub,2013-04-21 02:17:00,
2013-04-20 19:22:00,51.4,46.4,29.94,West,269,6.0,17.0,83,0.00,,,0.00,26.0,meteohub,2013-04-21 02:22:00,
2013-04-20 19:27:00,51.3,46.2,29.94,West,273,10.0,13.0,83,0.00,,,0.00,21.0,meteohub,2013-04-21 02:27:00,
2013-04-20 19:32:00,51.1,46.4,29.94,SW,229,5.0,13.0,84,0.00,,,0.00,18.0,meteohub,2013-04-21 02:32:00,
2013-04-20 19:37:00,50.9,46.2,29.94,WSW,243,6.0,14.0,84,0.00,,,0.00,14.0,meteohub,2013-04-21 02:37:00,
2013-04-20 19:42:00,50.7,46.0,29.94,SW,224,10.0,14.0,84,0.00,,,0.00,11.0,meteohub,2013-04-21 02:42:00,
2013-04-20 19:47:00,50.5,46.2,29.95,West,269,3.0,13.0,85,0.00,,,0.00,7.0,meteohub,2013-04-21 02:47:00,
2013-04-20 19:52:00,50.5,46.2,29.95,West,279,3.0,15.0,85,0.00,,,0.00,5.0,meteohub,2013-04-21 02:52:00,
2013-04-20 19:57:00,50.4,46.0,29.95,SSW,198,3.0,15.0,85,0.00,,,0.00,0.0,meteohub,2013-04-21 02:57:00,
2013-04-20 20:02:00,50.2,46.2,29.95,WSW,246,4.0,15.0,86,0.00,,,0.00,0.0,meteohub,2013-04-21 03:02:00,
2013-04-20 20:07:00,50.2,46.2,29.95,SW,221,4.0,12.0,86,0.00,,,0.00,0.0,meteohub,2013-04-21 03:07:00,
2013-04-20 20:12:00,50.2,46.2,29.95,WSW,242,3.0,12.0,86,0.00,,,0.00,0.0,meteohub,2013-04-21 03:12:00,
2013-04-20 20:17:00,50.0,46.0,29.95,WSW,251,6.0,13.0,86,0.00,,,0.00,0.0,meteohub,2013-04-21 03:17:00,
2013-04-20 20:22:00,49.8,46.0,29.95,WSW,245,2.0,13.0,87,0.00,,,0.00,0.0,meteohub,2013-04-21 03:22:00,
2013-04-20 20:27:00,49.8,46.0,29.95,WSW,246,2.0,13.0,87,0.00,,,0.00,0.0,meteohub,2013-04-21 03:27:00,
2013-04-20 20:32:00,49.8,46.0,29.95,WSW,254,12.0,13.0,87,0.00,,,0.00,0.0,meteohub,2013-04-21 03:32:00,
2013-04-20 20:37:00,49.6,45.9,29.95,South,186,7.0,13.0,87,0.00,,,0.00,0.0,meteohub,2013-04-21 03:37:00,
2013-04-20 20:42:00,49.6,46.2,29.95,SW,218,7.0,15.0,88,0.00,,,0.00,0.0,meteohub,2013-04-21 03:42:00,
2013-04-20 20:47:00,49.6,46.2,29.96,SW,217,4.0,15.0,88,0.00,,,0.00,0.0,meteohub,2013-04-21 03:47:00,
2013-04-20 20:51:00,49.5,46.0,29.96,WSW,242,4.0,15.0,88,0.00,,,0.00,0.0,meteohub,2013-04-21 03:51:00,
2013-04-20 20:56:00,49.5,46.0,29.96,SW,215,5.0,14.0,88,0.00,,,0.00,0.0,meteohub,2013-04-21 03:56:00,
2013-04-20 21:01:00,49.5,46.0,29.96,WSW,252,6.0,14.0,88,0.00,,,0.00,0.0,meteohub,2013-04-21 04:01:00,
2013-04-20 21:06:00,49.3,45.9,29.96,WSW,248,3.0,14.0,88,0.00,,,0.00,0.0,meteohub,2013-04-21 04:06:00,
2013-04-20 21:11:00,49.3,46.2,29.96,WSW,244,3.0,12.0,89,0.00,,,0.00,0.0,meteohub,2013-04-21 04:11:00,
2013-04-20 21:16:00,49.3,46.2,29.96,WSW,254,3.0,14.0,89,0.00,,,0.00,0.0,meteohub,2013-04-21 04:16:00,
2013-04-20 21:21:00,49.3,46.2,29.96,WSW,240,7.0,14.0,89,0.00,,,0.00,0.0,meteohub,2013-04-21 04:21:00,
2013-04-20 21:26:00,49.1,46.0,29.96,NW,313,2.0,15.0,89,0.00,,,0.00,0.0,meteohub,2013-04-21 04:26:00,
2013-04-20 21:31:00,49.1,46.0,29.96,WSW,250,4.0,15.0,89,0.00,,,0.00,0.0,meteohub,2013-04-21 04:31:00,
2013-04-20 21:36:00,48.9,45.9,29.97,SW,217,6.0,15.0,89,0.00,,,0.00,0.0,meteohub,2013-04-21 04:36:00,
2013-04-20 21:41:00,48.9,45.9,29.97,WSW,240,6.0,13.0,89,0.00,,,0.00,0.0,meteohub,2013-04-21 04:41:00,
2013-04-20 21:46:00,48.9,45.9,29.97,WSW,242,3.0,13.0,89,0.00,,,0.00,0.0,meteohub,2013-04-21 04:46:00,
2013-04-20 21:51:00,48.9,46.0,29.96,SW,218,10.0,13.0,90,0.00,,,0.00,0.0,meteohub,2013-04-21 04:51:00,
2013-04-20 21:56:00,48.7,45.9,29.97,SSW,212,7.0,16.0,90,0.00,,,0.00,0.0,meteohub,2013-04-21 04:56:00,
2013-04-20 22:01:00,48.7,45.9,29.96,WSW,237,12.0,16.0,90,0.00,,,0.00,0.0,meteohub,2013-04-21 05:01:00,
2013-04-20 22:06:00,48.7,45.9,29.96,SW,227,5.0,16.0,90,0.00,,,0.00,0.0,meteohub,2013-04-21 05:06:00,
2013-04-20 22:11:00,48.7,45.9,29.96,West,279,5.0,13.0,90,0.00,,,0.00,0.0,meteohub,2013-04-21 05:11:00,
2013-04-20 22:16:00,48.6,45.7,29.96,SW,223,4.0,13.0,90,0.00,,,0.00,0.0,meteohub,2013-04-21 05:16:00,
2013-04-20 22:21:00,48.6,45.7,29.96,SW,223,4.0,11.0,90,0.00,,,0.00,0.0,meteohub,2013-04-21 05:21:00,
2013-04-20 22:26:00,48.6,45.7,29.96,West,263,3.0,10.0,90,0.00,,,0.00,0.0,meteohub,2013-04-21 05:26:00,
2013-04-20 22:31:00,48.6,45.7,29.96,WSW,257,11.0,11.0,90,0.00,,,0.00,0.0,meteohub,2013-04-21 05:31:00,
2013-04-20 22:36:00,48.6,46.0,29.96,SW,234,3.0,12.0,91,0.00,,,0.00,0.0,meteohub,2013-04-21 05:36:00,
2013-04-20 22:41:00,48.4,45.9,29.96,SW,234,9.0,14.0,91,0.00,,,0.00,0.0,meteohub,2013-04-21 05:41:00,
2013-04-20 22:46:00,48.4,45.9,29.97,SW,232,4.0,17.0,91,0.00,,,0.00,0.0,meteohub,2013-04-21 05:46:00,
2013-04-20 22:51:00,48.4,45.9,29.97,WSW,248,4.0,17.0,91,0.00,,,0.00,0.0,meteohub,2013-04-21 05:51:00,
2013-04-20 22:56:00,48.4,45.5,29.97,WSW,252,7.0,17.0,90,0.00,,,0.00,0.0,meteohub,2013-04-21 05:56:00,
2013-04-20 23:01:00,48.4,45.5,29.97,WSW,252,4.0,14.0,90,0.00,,,0.00,0.0,meteohub,2013-04-21 06:01:00,
2013-04-20 23:06:00,48.2,45.7,29.97,WSW,246,4.0,14.0,91,0.00,,,0.00,0.0,meteohub,2013-04-21 06:06:00,
2013-04-20 23:11:00,48.2,45.7,29.97,WSW,238,10.0,14.0,91,0.00,,,0.00,0.0,meteohub,2013-04-21 06:11:00,
2013-04-20 23:16:00,48.0,45.5,29.97,West,263,6.0,14.0,91,0.00,,,0.00,0.0,meteohub,2013-04-21 06:16:00,
2013-04-20 23:21:00,48.0,45.5,29.97,WNW,303,4.0,12.0,91,0.00,,,0.00,0.0,meteohub,2013-04-21 06:21:00,
2013-04-20 23:26:00,48.0,45.5,29.96,SW,224,4.0,12.0,91,0.00,,,0.00,0.0,meteohub,2013-04-21 06:26:00,
2013-04-20 23:31:00,48.0,45.5,29.96,WSW,240,2.0,12.0,91,0.00,,,0.00,0.0,meteohub,2013-04-21 06:31:00,
2013-04-20 23:36:00,48.0,45.5,29.97,WSW,248,5.0,12.0,91,0.00,,,0.00,0.0,meteohub,2013-04-21 06:36:00,
2013-04-20 23:41:00,47.8,45.3,29.96,WSW,258,3.0,12.0,91,0.00,,,0.00,0.0,meteohub,2013-04-21 06:41:00,
2013-04-20 23:46:00,47.8,45.3,29.96,SW,234,4.0,11.0,91,0.00,,,0.00,0.0,meteohub,2013-04-21 06:46:00,
2013-04-20 23:51:00,47.8,45.3,29.96,West,270,5.0,11.0,91,0.00,,,0.00,0.0,meteohub,2013-04-21 06:51:00,
2013-04-20 23:56:00,47.8,45.3,29.96,WSW,248,3.0,10.0,91,0.00,,,0.00,0.0,meteohub,2013-04-21 06:56:00,